Location: Ford County Road and Bridge Department
(37.7686°N, 99.9762°W)
Time: 18:02:10
(UTC+00:00)

Meteor 2-10 Rocket - Pass Details

Date: 18 January 2020
Orbit: 733 x 885 km, 81.2° (Epoch: 22 February)

Event Time Altitude Azimuth Distance (km) Brightness Sun altitude
Rises 01:42:10 0° 354° (N) 3,353 6.8 -22.5°
Reaches altitude 10° 01:44:39 10° 358° (N) 2,393 6.0 -23.0°
Enters shadow 01:49:05 53° 36° (NE) 961 3.7 -23.9°
